Year,Month,Day,Hour,Minute,Value (Times are PST for temperature in C)
2014,11,19,02,00,2.10
2014,11,19,02,01,2.10
2014,11,19,02,02,2.10
2014,11,19,02,03,2.10
2014,11,19,02,04,2.10
2014,11,19,02,05,2.10
2014,11,19,02,06,2.10
2014,11,19,02,07,2.20
2014,11,19,02,08,2.20
2014,11,19,02,09,2.10
2014,11,19,02,10,2.10
2014,11,19,02,11,2.10
2014,11,19,02,12,2.10
2014,11,19,02,13,2.10
2014,11,19,02,14,2.00
2014,11,19,02,15,2.00
2014,11,19,02,16,2.00
2014,11,19,02,17,2.00
2014,11,19,02,18,2.00
2014,11,19,02,19,2.00
2014,11,19,02,20,2.10
2014,11,19,02,21,2.10
2014,11,19,02,22,2.10
2014,11,19,02,23,2.00
2014,11,19,02,24,2.00
2014,11,19,02,25,2.00
2014,11,19,02,26,2.00
2014,11,19,02,27,2.00
2014,11,19,02,28,2.00
2014,11,19,02,29,2.00
2014,11,19,02,30,1.90
2014,11,19,02,31,2.00
2014,11,19,02,32,2.00
2014,11,19,02,33,2.00
2014,11,19,02,34,2.00
2014,11,19,02,35,2.00
2014,11,19,02,36,2.00
2014,11,19,02,37,2.00
2014,11,19,02,38,2.00
2014,11,19,02,39,2.00
2014,11,19,02,40,2.00
2014,11,19,02,41,2.00
2014,11,19,02,42,2.00
2014,11,19,02,43,2.00
2014,11,19,02,44,2.00
2014,11,19,02,45,2.00
2014,11,19,02,46,2.00
2014,11,19,02,47,2.00
2014,11,19,02,48,2.00
2014,11,19,02,49,2.00
2014,11,19,02,50,2.00
2014,11,19,02,51,2.10
2014,11,19,02,52,2.10
2014,11,19,02,53,2.10
2014,11,19,02,54,2.10
2014,11,19,02,55,2.10
2014,11,19,02,56,2.00
2014,11,19,02,57,1.90
2014,11,19,02,58,1.90
2014,11,19,02,59,1.90
2014,11,19,03,00,1.90
2014,11,19,03,01,1.90
2014,11,19,03,02,1.90
2014,11,19,03,03,1.80
2014,11,19,03,04,1.80
2014,11,19,03,05,1.80
2014,11,19,03,06,1.80
2014,11,19,03,07,1.80
2014,11,19,03,08,1.80
2014,11,19,03,09,1.70
2014,11,19,03,10,1.70
2014,11,19,03,11,1.70
2014,11,19,03,12,1.70
2014,11,19,03,13,1.70
2014,11,19,03,14,1.70
2014,11,19,03,15,1.70
2014,11,19,03,16,1.70
2014,11,19,03,17,1.70
2014,11,19,03,18,1.60
2014,11,19,03,19,1.60
2014,11,19,03,20,1.60
2014,11,19,03,21,1.60
2014,11,19,03,22,1.60
2014,11,19,03,23,1.60
2014,11,19,03,24,1.60
2014,11,19,03,25,1.50
2014,11,19,03,26,1.50
2014,11,19,03,27,1.50
2014,11,19,03,28,1.40
2014,11,19,03,29,1.40
2014,11,19,03,30,1.40
2014,11,19,03,31,1.40
2014,11,19,03,32,1.40
2014,11,19,03,33,1.40
2014,11,19,03,34,1.40
2014,11,19,03,35,1.40
2014,11,19,03,36,1.40
2014,11,19,03,37,1.40
2014,11,19,03,38,1.40
2014,11,19,03,39,1.40
2014,11,19,03,40,1.40
2014,11,19,03,41,1.40
2014,11,19,03,42,1.40
2014,11,19,03,43,1.40
2014,11,19,03,44,1.30
2014,11,19,03,45,1.30
2014,11,19,03,46,1.30
2014,11,19,03,47,1.30
2014,11,19,03,48,1.30
2014,11,19,03,49,1.30
2014,11,19,03,50,1.30
2014,11,19,03,51,1.30
2014,11,19,03,52,1.30
2014,11,19,03,53,1.20
2014,11,19,03,54,1.20
2014,11,19,03,55,1.20
2014,11,19,03,56,1.20
2014,11,19,03,57,1.20
2014,11,19,03,58,1.20
2014,11,19,03,59,1.20
2014,11,19,04,00,1.20
2014,11,19,04,01,1.20
2014,11,19,04,02,1.20
2014,11,19,04,03,1.20
2014,11,19,04,04,1.20
2014,11,19,04,05,1.20
2014,11,19,04,06,1.20
2014,11,19,04,07,1.20
2014,11,19,04,08,1.30
2014,11,19,04,09,1.30
2014,11,19,04,10,1.30
2014,11,19,04,11,1.30
2014,11,19,04,12,1.30
2014,11,19,04,13,1.30
2014,11,19,04,14,1.30
2014,11,19,04,15,1.30
2014,11,19,04,16,1.30
2014,11,19,04,17,1.30
2014,11,19,04,18,1.30
2014,11,19,04,19,1.30
2014,11,19,04,20,1.30
2014,11,19,04,21,1.30
2014,11,19,04,22,1.30
2014,11,19,04,23,1.30
2014,11,19,04,24,1.30
2014,11,19,04,25,1.30
2014,11,19,04,26,1.20
2014,11,19,04,27,1.20
2014,11,19,04,28,1.20
2014,11,19,04,29,1.20
2014,11,19,04,30,1.20
2014,11,19,04,31,1.20
2014,11,19,04,32,1.20
2014,11,19,04,33,1.20
2014,11,19,04,34,1.20
2014,11,19,04,35,1.20
2014,11,19,04,36,1.20
2014,11,19,04,37,1.20
2014,11,19,04,38,1.20
2014,11,19,04,39,1.20
2014,11,19,04,40,1.20
2014,11,19,04,41,1.20
2014,11,19,04,42,1.20
2014,11,19,04,43,1.20
2014,11,19,04,44,1.20
2014,11,19,04,45,1.10
2014,11,19,04,46,1.10
2014,11,19,04,47,1.10
2014,11,19,04,48,1.10
2014,11,19,04,49,1.10
2014,11,19,04,50,1.00
2014,11,19,04,51,1.00
2014,11,19,04,52,1.00
2014,11,19,04,53,1.00
2014,11,19,04,54,1.00
2014,11,19,04,55,1.00
2014,11,19,04,56,1.00
2014,11,19,04,57,1.00
2014,11,19,04,58,1.00
2014,11,19,04,59,1.00
2014,11,19,05,00,1.00
2014,11,19,05,01,1.00
2014,11,19,05,02,1.00
2014,11,19,05,03,1.00
2014,11,19,05,04,1.00
2014,11,19,05,05,1.00
2014,11,19,05,06,1.00
2014,11,19,05,07,1.00
2014,11,19,05,08,0.90
2014,11,19,05,09,0.90
2014,11,19,05,10,0.90
2014,11,19,05,11,0.90
2014,11,19,05,12,0.90
2014,11,19,05,13,0.90
2014,11,19,05,14,0.90
2014,11,19,05,15,0.90
2014,11,19,05,16,1.00
2014,11,19,05,17,1.00
2014,11,19,05,18,1.00
2014,11,19,05,19,1.00
2014,11,19,05,20,1.00
2014,11,19,05,21,1.00
2014,11,19,05,22,1.10
2014,11,19,05,23,1.10
2014,11,19,05,24,1.10
2014,11,19,05,25,1.10
2014,11,19,05,26,1.10
2014,11,19,05,27,1.10
2014,11,19,05,28,1.10
2014,11,19,05,29,1.10
2014,11,19,05,30,1.10
2014,11,19,05,31,1.00
2014,11,19,05,32,1.00
2014,11,19,05,33,1.00
2014,11,19,05,34,1.00
2014,11,19,05,35,1.00
2014,11,19,05,36,0.90
2014,11,19,05,37,0.90
2014,11,19,05,38,0.90
2014,11,19,05,39,0.90
2014,11,19,05,40,1.00
2014,11,19,05,41,1.10
2014,11,19,05,42,1.10
2014,11,19,05,43,1.10
2014,11,19,05,44,1.10
2014,11,19,05,45,1.10
2014,11,19,05,46,1.10
2014,11,19,05,47,1.10
2014,11,19,05,48,1.10
2014,11,19,05,49,1.10
2014,11,19,05,50,1.10
2014,11,19,05,51,1.10
2014,11,19,05,52,1.10
2014,11,19,05,53,1.10
2014,11,19,05,54,1.10
2014,11,19,05,55,1.10
2014,11,19,05,56,1.10
2014,11,19,05,57,1.10
2014,11,19,05,58,1.00
2014,11,19,05,59,1.00
2014,11,19,06,00,1.00
2014,11,19,06,01,1.00
2014,11,19,06,02,1.00
2014,11,19,06,03,1.00
2014,11,19,06,04,0.90
2014,11,19,06,05,0.90
2014,11,19,06,06,0.90
2014,11,19,06,07,0.90
2014,11,19,06,08,0.80
2014,11,19,06,09,0.80
2014,11,19,06,10,0.80
2014,11,19,06,11,0.80
2014,11,19,06,12,0.80
2014,11,19,06,13,0.80
2014,11,19,06,14,0.80
2014,11,19,06,15,0.80
2014,11,19,06,16,0.80
2014,11,19,06,17,0.70
2014,11,19,06,18,0.70
2014,11,19,06,19,0.70
2014,11,19,06,20,0.70
2014,11,19,06,21,0.70
2014,11,19,06,22,0.70
2014,11,19,06,23,0.70
2014,11,19,06,24,0.70
2014,11,19,06,25,0.70
2014,11,19,06,26,0.60
2014,11,19,06,27,0.60
2014,11,19,06,28,0.60
2014,11,19,06,29,0.60
2014,11,19,06,30,0.60
2014,11,19,06,31,0.70
2014,11,19,06,32,0.70
2014,11,19,06,33,0.70
2014,11,19,06,34,0.70
2014,11,19,06,35,0.70
2014,11,19,06,36,0.70
2014,11,19,06,37,0.70
2014,11,19,06,38,0.70
2014,11,19,06,39,0.70
2014,11,19,06,40,0.70
2014,11,19,06,41,0.70
2014,11,19,06,42,0.70
2014,11,19,06,43,0.70
2014,11,19,06,44,0.70
2014,11,19,06,45,0.70
2014,11,19,06,46,0.70
2014,11,19,06,47,0.70
2014,11,19,06,48,0.70
2014,11,19,06,49,0.70
2014,11,19,06,50,0.70
2014,11,19,06,51,0.70
2014,11,19,06,52,0.70
2014,11,19,06,53,0.60
2014,11,19,06,54,0.60
2014,11,19,06,55,0.60
2014,11,19,06,56,0.60
2014,11,19,06,57,0.60
2014,11,19,06,58,0.60
2014,11,19,06,59,0.50
2014,11,19,07,00,0.50
2014,11,19,07,01,0.50
2014,11,19,07,02,0.40
2014,11,19,07,03,0.40
2014,11,19,07,04,0.40
2014,11,19,07,05,0.40
2014,11,19,07,06,0.40
2014,11,19,07,07,0.40
2014,11,19,07,08,0.50
2014,11,19,07,09,0.60
2014,11,19,07,10,0.60
2014,11,19,07,11,0.60
2014,11,19,07,12,0.70
2014,11,19,07,13,0.70
2014,11,19,07,14,0.70
2014,11,19,07,15,0.70
2014,11,19,07,16,0.70
2014,11,19,07,17,0.70
2014,11,19,07,18,0.70
2014,11,19,07,19,0.70
2014,11,19,07,20,0.70
2014,11,19,07,21,0.70
2014,11,19,07,22,0.70
2014,11,19,07,23,0.70
2014,11,19,07,24,0.80
2014,11,19,07,25,0.80
2014,11,19,07,26,0.80
2014,11,19,07,27,0.80
2014,11,19,07,28,0.80
2014,11,19,07,29,0.80
2014,11,19,07,30,0.80
2014,11,19,07,31,0.80
2014,11,19,07,32,0.80
2014,11,19,07,33,0.80
2014,11,19,07,34,0.80
2014,11,19,07,35,0.80
2014,11,19,07,36,0.80
2014,11,19,07,37,0.80
2014,11,19,07,38,0.80
2014,11,19,07,39,0.80
2014,11,19,07,40,0.80
2014,11,19,07,41,0.80
2014,11,19,07,42,0.80
2014,11,19,07,43,0.80
2014,11,19,07,44,0.80
2014,11,19,07,45,0.80
2014,11,19,07,46,0.80
2014,11,19,07,47,0.80
2014,11,19,07,48,0.80
2014,11,19,07,49,0.80
2014,11,19,07,50,0.70
2014,11,19,07,51,0.70
2014,11,19,07,52,0.70
2014,11,19,07,53,0.70
2014,11,19,07,54,0.70
2014,11,19,07,55,0.70
2014,11,19,07,56,0.70
2014,11,19,07,57,0.70
2014,11,19,07,58,0.70
2014,11,19,07,59,0.70
2014,11,19,08,00,0.70
2014,11,19,08,01,0.80
2014,11,19,08,02,0.80
2014,11,19,08,03,0.80
2014,11,19,08,04,0.80
2014,11,19,08,05,0.80
2014,11,19,08,06,0.80
2014,11,19,08,07,0.80
2014,11,19,08,08,0.80
2014,11,19,08,09,0.80
2014,11,19,08,10,0.80
2014,11,19,08,11,0.80
2014,11,19,08,12,0.80
2014,11,19,08,13,0.80
2014,11,19,08,14,0.80
2014,11,19,08,15,0.80
2014,11,19,08,16,0.70
2014,11,19,08,17,0.70
2014,11,19,08,18,0.70
2014,11,19,08,19,0.70
2014,11,19,08,20,0.70
2014,11,19,08,21,0.70
2014,11,19,08,22,0.70
2014,11,19,08,23,0.70
2014,11,19,08,24,0.70
2014,11,19,08,25,0.70
2014,11,19,08,26,0.70
2014,11,19,08,27,0.80
2014,11,19,08,28,0.80
2014,11,19,08,29,0.80
2014,11,19,08,30,0.80
2014,11,19,08,31,0.80
2014,11,19,08,32,0.80
2014,11,19,08,33,0.80
2014,11,19,08,34,0.90
2014,11,19,08,35,0.90
2014,11,19,08,36,0.90
2014,11,19,08,37,0.90
2014,11,19,08,38,0.90
2014,11,19,08,39,0.90
2014,11,19,08,40,0.90
2014,11,19,08,41,0.90
2014,11,19,08,42,1.00
2014,11,19,08,43,1.00
2014,11,19,08,44,1.00
2014,11,19,08,45,1.00
2014,11,19,08,46,1.00
2014,11,19,08,47,1.00
2014,11,19,08,48,1.00
2014,11,19,08,49,1.00
2014,11,19,08,50,1.10
2014,11,19,08,51,1.10
2014,11,19,08,52,1.10
2014,11,19,08,53,1.10
2014,11,19,08,54,1.10
2014,11,19,08,55,1.20
2014,11,19,08,56,1.20
2014,11,19,08,57,1.30
2014,11,19,08,58,1.30
2014,11,19,08,59,1.40
2014,11,19,09,00,1.40
2014,11,19,09,01,1.50
2014,11,19,09,02,1.50
2014,11,19,09,03,1.60
2014,11,19,09,04,1.60
2014,11,19,09,05,1.60
2014,11,19,09,06,1.70
2014,11,19,09,07,1.70
2014,11,19,09,08,1.70
2014,11,19,09,09,1.70
2014,11,19,09,10,1.80
2014,11,19,09,11,1.80
2014,11,19,09,12,1.80
2014,11,19,09,13,1.90
2014,11,19,09,14,1.90
2014,11,19,09,15,2.00
2014,11,19,09,16,2.10
2014,11,19,09,17,2.10
2014,11,19,09,18,2.20
2014,11,19,09,19,2.20
2014,11,19,09,20,2.30
2014,11,19,09,21,2.30
2014,11,19,09,22,2.40
2014,11,19,09,23,2.40
2014,11,19,09,24,2.40
2014,11,19,09,25,2.50
2014,11,19,09,26,2.50
2014,11,19,09,27,2.60
2014,11,19,09,28,2.60
2014,11,19,09,29,2.70
2014,11,19,09,30,2.70
2014,11,19,09,31,2.80
2014,11,19,09,32,2.80
2014,11,19,09,33,2.80
2014,11,19,09,34,2.90
2014,11,19,09,35,2.90
2014,11,19,09,36,2.90
2014,11,19,09,37,2.90
2014,11,19,09,38,3.00
2014,11,19,09,39,3.00
2014,11,19,09,40,3.10
2014,11,19,09,41,3.10
2014,11,19,09,42,3.10
2014,11,19,09,43,3.10
2014,11,19,09,44,3.20
2014,11,19,09,45,3.20
2014,11,19,09,46,3.20
2014,11,19,09,47,3.20
2014,11,19,09,48,3.30
2014,11,19,09,49,3.30
2014,11,19,09,50,3.30
2014,11,19,09,51,3.30
2014,11,19,09,52,3.30
2014,11,19,09,53,3.40
2014,11,19,09,54,3.40
2014,11,19,09,55,3.40
2014,11,19,09,56,3.40
2014,11,19,09,57,3.50
2014,11,19,09,58,3.60
2014,11,19,09,59,3.60
2014,11,19,10,00,3.60
2014,11,19,10,01,3.70
2014,11,19,10,02,3.70
2014,11,19,10,03,3.70
2014,11,19,10,04,3.80
2014,11,19,10,05,3.80
2014,11,19,10,06,3.80
2014,11,19,10,07,3.90
2014,11,19,10,08,3.90
2014,11,19,10,09,3.90
2014,11,19,10,10,4.00
2014,11,19,10,11,4.00
2014,11,19,10,12,4.00
2014,11,19,10,13,4.10
2014,11,19,10,14,4.10
2014,11,19,10,15,4.10
2014,11,19,10,16,4.20
2014,11,19,10,17,4.20
2014,11,19,10,18,4.20
2014,11,19,10,19,4.20
2014,11,19,10,20,4.20
2014,11,19,10,21,4.30
2014,11,19,10,22,4.30
2014,11,19,10,23,4.30
2014,11,19,10,24,4.30
2014,11,19,10,25,4.40
2014,11,19,10,26,4.40
2014,11,19,10,27,4.40
2014,11,19,10,28,4.50
2014,11,19,10,29,4.50
2014,11,19,10,30,4.50
2014,11,19,10,31,4.50
2014,11,19,10,32,4.60
2014,11,19,10,33,4.60
2014,11,19,10,34,4.60
2014,11,19,10,35,4.70
2014,11,19,10,36,4.70
2014,11,19,10,37,4.70
2014,11,19,10,38,4.80
2014,11,19,10,39,4.80
2014,11,19,10,40,4.80
2014,11,19,10,41,4.90
2014,11,19,10,42,4.90
2014,11,19,10,43,4.90
2014,11,19,10,44,5.00
2014,11,19,10,45,5.00
2014,11,19,10,46,5.10
2014,11,19,10,47,5.10
2014,11,19,10,48,5.10
2014,11,19,10,49,5.20
2014,11,19,10,50,5.20
2014,11,19,10,51,5.30
2014,11,19,10,52,5.30
2014,11,19,10,53,5.40
2014,11,19,10,54,5.40
2014,11,19,10,55,5.50
2014,11,19,10,56,5.50
2014,11,19,10,57,5.50
2014,11,19,10,58,5.60
2014,11,19,10,59,5.60
2014,11,19,11,00,5.60
2014,11,19,11,01,5.70
2014,11,19,11,02,5.70
2014,11,19,11,03,5.70
2014,11,19,11,04,5.80
2014,11,19,11,05,5.80
2014,11,19,11,06,5.80
2014,11,19,11,07,5.80
2014,11,19,11,08,5.80
2014,11,19,11,09,5.80
2014,11,19,11,10,5.90
2014,11,19,11,11,5.90
2014,11,19,11,12,5.90
2014,11,19,11,13,5.90
2014,11,19,11,14,5.90
2014,11,19,11,15,5.90
2014,11,19,11,16,5.90
2014,11,19,11,17,5.90
2014,11,19,11,18,6.00
2014,11,19,11,19,6.00
2014,11,19,11,20,6.00
2014,11,19,11,21,6.00
2014,11,19,11,22,6.00
2014,11,19,11,23,6.00
2014,11,19,11,24,6.10
2014,11,19,11,25,6.10
2014,11,19,11,26,6.10
2014,11,19,11,27,6.10
2014,11,19,11,28,6.10
2014,11,19,11,29,6.10
2014,11,19,11,30,6.10
2014,11,19,11,31,6.20
2014,11,19,11,32,6.20
2014,11,19,11,33,6.20
2014,11,19,11,34,6.20
2014,11,19,11,35,6.20
2014,11,19,11,36,6.20
2014,11,19,11,37,6.20
2014,11,19,11,38,6.20
2014,11,19,11,39,6.20
2014,11,19,11,40,6.20
2014,11,19,11,41,6.20
2014,11,19,20,16,4.70
2014,11,19,20,17,4.60
2014,11,19,20,18,4.60
2014,11,19,20,19,4.60
2014,11,19,20,20,4.60
2014,11,19,20,21,4.60
2014,11,19,20,22,4.60
2014,11,19,20,23,4.60
2014,11,19,20,24,4.60
2014,11,19,20,25,4.60
2014,11,19,20,26,4.60
2014,11,19,20,27,4.60
2014,11,19,20,28,4.60
2014,11,19,20,29,4.60
2014,11,19,20,30,4.60
2014,11,19,20,31,4.60
2014,11,19,20,32,4.60
2014,11,19,20,33,4.60
2014,11,19,20,34,4.60
2014,11,19,20,35,4.60
2014,11,19,20,36,4.60
2014,11,19,20,37,4.60
2014,11,19,20,38,4.60
2014,11,19,20,39,4.60
2014,11,19,20,40,4.60
2014,11,19,20,41,4.60
2014,11,19,20,42,4.60
2014,11,19,20,43,4.60
2014,11,19,20,44,4.50
2014,11,19,20,45,4.50
2014,11,19,20,46,4.50
2014,11,19,20,47,4.50
2014,11,19,20,48,4.50
2014,11,19,20,49,4.50
2014,11,19,20,50,4.50
2014,11,19,20,51,4.50
2014,11,19,20,52,4.50
2014,11,19,20,53,4.50
2014,11,19,20,54,4.50
2014,11,19,20,55,4.50
2014,11,19,20,56,4.50
2014,11,19,20,57,4.50
2014,11,19,20,58,4.40
2014,11,19,20,59,4.40
2014,11,19,21,00,4.40
2014,11,19,21,01,4.40
2014,11,19,21,02,4.40
2014,11,19,21,03,4.30
2014,11,19,21,04,4.30
2014,11,19,21,05,4.30
2014,11,19,21,06,4.30
2014,11,19,21,07,4.30
2014,11,19,21,08,4.30
2014,11,19,21,09,4.30
2014,11,19,21,10,4.20
2014,11,19,21,11,4.20
2014,11,19,21,12,4.20
2014,11,19,21,13,4.30
2014,11,19,21,14,4.20
2014,11,19,21,15,4.30
2014,11,19,21,16,4.30
2014,11,19,21,17,4.30
2014,11,19,21,18,4.30
2014,11,19,21,19,4.30
2014,11,19,21,20,4.30
2014,11,19,21,21,4.20
2014,11,19,21,22,4.20
2014,11,19,21,23,4.20
2014,11,19,21,24,4.20
2014,11,19,21,25,4.20
2014,11,19,21,26,4.20
2014,11,19,21,27,4.20
2014,11,19,21,28,4.20
2014,11,19,21,29,4.20
2014,11,19,21,30,4.20
2014,11,19,21,31,4.20
2014,11,19,21,32,4.20
2014,11,19,21,33,4.20
2014,11,19,21,34,4.20
2014,11,19,21,35,4.20
2014,11,19,21,36,4.20
2014,11,19,21,37,4.20
2014,11,19,21,38,4.20
2014,11,19,21,39,4.20
2014,11,19,21,40,4.20
2014,11,19,21,41,4.10
2014,11,19,21,42,4.10
2014,11,19,21,43,4.10
2014,11,19,21,44,4.10
2014,11,19,21,45,4.10
2014,11,19,21,46,4.10
2014,11,19,21,47,4.10
2014,11,19,21,48,4.10
2014,11,19,21,49,4.10
2014,11,19,21,50,4.10
2014,11,19,21,51,4.10
2014,11,19,21,52,4.10
2014,11,19,21,53,4.10
2014,11,19,21,54,4.10
2014,11,19,21,55,4.10
2014,11,19,21,56,4.10
2014,11,19,21,57,4.10
2014,11,19,21,58,4.10
2014,11,19,21,59,4.10
2014,11,19,22,00,4.10
2014,11,19,22,01,4.10
2014,11,19,22,02,4.10
2014,11,19,22,03,4.10
2014,11,19,22,04,4.10
2014,11,19,22,05,4.10
2014,11,19,22,06,4.10
2014,11,19,22,07,4.10
2014,11,19,22,08,4.10
2014,11,19,22,09,4.10
2014,11,19,22,10,4.10
2014,11,19,22,11,4.10
2014,11,19,22,12,4.10
2014,11,19,22,13,4.10
2014,11,19,22,14,4.10
2014,11,19,22,15,4.10
2014,11,19,22,16,4.10
2014,11,19,22,17,4.10
2014,11,19,22,18,4.10
2014,11,19,22,19,4.10
2014,11,19,22,20,4.10
2014,11,19,22,21,4.10
2014,11,19,22,22,4.10
2014,11,19,22,23,4.10
2014,11,19,22,24,4.10
2014,11,19,22,25,4.10
2014,11,19,22,26,4.10
2014,11,19,22,27,4.20
2014,11,19,22,28,4.20
2014,11,19,22,29,4.20
2014,11,19,22,30,4.20
2014,11,19,22,31,4.20
2014,11,19,22,32,4.20
2014,11,19,22,33,4.20
2014,11,19,22,34,4.20
2014,11,19,22,35,4.20
2014,11,19,22,36,4.20
2014,11,19,22,37,4.20
2014,11,19,22,38,4.20
2014,11,19,22,39,4.20
2014,11,19,22,40,4.20
2014,11,19,22,41,4.20
2014,11,19,22,42,4.20
2014,11,19,22,43,4.10
2014,11,19,22,44,4.10
2014,11,19,22,45,4.10
2014,11,19,22,46,4.10
2014,11,19,22,47,4.10
2014,11,19,22,48,4.10
2014,11,19,22,49,4.10
2014,11,19,22,50,4.10
2014,11,19,22,51,4.10
2014,11,19,22,52,4.10
2014,11,19,22,53,4.00
2014,11,19,22,54,4.00
2014,11,19,22,55,4.00
2014,11,19,22,56,4.00
2014,11,19,22,57,4.00
2014,11,19,22,58,4.00
2014,11,19,22,59,4.00
2014,11,19,23,00,4.00
2014,11,19,23,01,4.00
2014,11,19,23,02,4.00
2014,11,19,23,03,4.10
2014,11,19,23,04,4.00
2014,11,19,23,05,4.10
2014,11,19,23,06,4.10
2014,11,19,23,07,4.10
2014,11,19,23,08,4.10
2014,11,19,23,09,4.10
2014,11,19,23,10,4.10
2014,11,19,23,11,4.10
2014,11,19,23,12,4.00
2014,11,19,23,13,4.00
2014,11,19,23,14,4.00
2014,11,19,23,15,4.00
2014,11,19,23,16,4.00
2014,11,19,23,17,4.00
2014,11,19,23,18,4.00
2014,11,19,23,19,4.00
2014,11,19,23,20,4.00
2014,11,19,23,21,4.00
2014,11,19,23,22,4.00
2014,11,19,23,23,4.00
2014,11,19,23,24,4.00
2014,11,19,23,25,4.00
2014,11,19,23,26,4.00
2014,11,19,23,27,4.00
2014,11,19,23,28,4.00
2014,11,19,23,29,4.00
2014,11,19,23,30,4.00
2014,11,19,23,31,3.90
2014,11,19,23,32,3.90
2014,11,19,23,33,3.90
2014,11,19,23,34,3.90
2014,11,19,23,35,3.90
2014,11,19,23,36,3.90
2014,11,19,23,37,3.90
2014,11,19,23,38,3.90
2014,11,19,23,39,3.90
2014,11,19,23,40,3.90
2014,11,19,23,41,4.00
2014,11,19,23,42,4.00
2014,11,19,23,43,4.00
2014,11,19,23,44,4.00
2014,11,19,23,45,4.00
2014,11,19,23,46,4.00
2014,11,19,23,47,4.00
2014,11,19,23,48,4.00
2014,11,19,23,49,4.00
2014,11,19,23,50,4.00
2014,11,19,23,51,4.00
2014,11,19,23,52,4.00
2014,11,19,23,53,4.00
2014,11,19,23,54,4.00
2014,11,19,23,55,4.10
2014,11,19,23,56,4.10
2014,11,19,23,57,4.10
2014,11,19,23,58,4.10
2014,11,19,23,59,4.00
